Location: Liberty
(32.6612°N, 88.7589°W)
Time: 21:08:46
(UTC+00:00)

X-37B - Visible Passes

Search period start: 19 January 2022 00:00
Search period end: 29 January 2022 00:00
Orbit: 334 x 337 km, 45.0° (Epoch: 11 January)

Date Brightness Start Highest point End Pass type
(mag) Time Alt. Az. Time Alt. Az. Time Alt. Az.
23 Jan 3.2 01:07:18 10° SSW 01:07:45 13° SSW 01:07:45 13° SSW visible
24 Jan 3.7 01:27:25 10° WSW 01:27:47 13° WSW 01:27:47 13° WSW visible
25 Jan 1.4 00:12:44 10° SSW 00:15:17 31° SE 00:16:30 21° E visible
26 Jan 0.4 00:32:50 10° WSW 00:35:39 66° NNW 00:36:23 42° NNE visible
27 Jan 2.2 00:53:51 10° W 00:56:12 23° NNW 00:56:12 23° NNW visible
28 Jan 3.5 01:15:42 10° NW 01:15:56 11° NW 01:15:56 11° NW visible
